Home > Weather > Cruzeiro do Sul > Past weeks

Flag for Brazil Past Weather in Cruzeiro do Sul, Acre, Brazil — Yesterday and Last 2 Weeks

Now
90 °F

Scattered clouds.


Feels Like: 95 °F
Forecast: N/A
Wind: 5 mph from Northeast

Location: Cruzeiro Do Sul Airport

Current Time: Jul 26, 2016 at 5:01:30 PM

Latest Report: Jul 26, 2016 at 4:00 PM


Visibility: N/A

Pressure: 29.83 "Hg

Humidity: 52%

Dew Point: 70 °F

Location of Cruzeiro do SulLocation

Past Weather in Cruzeiro do Sul — Graph

°F

Cruzeiro do Sul Temperature Yesterday

Maximum temperature yesterday: 91 °F (at 1:00 PM)
Minimum temperature yesterday: 72 °F (at 1:00 AM)
Average temperature yesterday: 82 °F

High & Low Weather Summary for the Past Weeks

 TemperatureHumidityPressure
High93 °F (Jul 26, 2:00 PM)100% (Jul 13, 10:00 PM)30.09 "Hg (Jul 13, 10:00 PM)
Low66 °F (Jul 20, 1:45 AM)38% (Jul 21, 2:00 PM)29.80 "Hg (Jul 25, 5:00 PM)
Average80 °F76%29.92 "Hg
* Reported Jul 11 4:00 PM — Jul 26 4:00 PM, Cruzeiro do Sul, Weather by CustomWeather, © 2016

Note: Actual official high and low records may vary slightly from our data, if they occured in-between our weather recording intervals... More about our weather records

Advertising

Cruzeiro do Sul Weather History for the Previous 24 Hours

Scroll right to see more
 ConditionsComfort  
Time TempWeatherWind HumidityBarometerVisibility
4:00 PM
Tue, Jul 26
90 °FScattered clouds.5 mph52%29.83 "HgN/A
3:00 PM90 °FPartly sunny.8 mph49%29.83 "HgN/A
2:00 PM93 °FPartly sunny.2 mph44%29.86 "HgN/A
1:00 PM91 °FPartly sunny.6 mph49%29.89 "HgN/A
12:00 PM91 °FPartly sunny.7 mph49%29.92 "HgN/A
11:00 AM88 °FScattered clouds.6 mph59%29.95 "HgN/A
10:00 AM86 °FPassing clouds.7 mph66%29.98 "HgN/A
9:00 AM82 °FSunny.7 mph74%29.98 "Hg10 mi
1:45 AM72 °FClear.No wind94%29.89 "Hg10 mi
1:00 AM72 °FClear.No wind94%29.89 "Hg10 mi
12:00 AM73 °FClear.2 mph94%29.89 "Hg10 mi
11:00 PM
Mon, Jul 25
73 °FClear.No wind94%29.89 "Hg10 mi
10:00 PM73 °FClear.No wind94%29.89 "Hg10 mi
9:00 PM75 °FClear.No wind94%29.89 "Hg10 mi
8:00 PM77 °FClear.No wind89%29.86 "Hg10 mi
7:00 PM77 °FClear.No wind89%29.83 "Hg10 mi
6:00 PM84 °FPassing clouds.3 mph62%29.80 "HgN/A
5:00 PM90 °FPassing clouds.3 mph49%29.80 "HgN/A
Weather by CustomWeather, © 2016

See weather overviewHow to use our weather pages